Theta_e
315 315 321 323 322 324 324 329 331 334 337 326 323 322 317 321 323 323 323 322 323 323 324 322 321 321 320 321 319 320 323 326 327 324 326 335 330 325 325 322 326 328 331 338 339 335 336 341 341 342 343 342 342 342 342 342 342 341 341 341 341 341 341 339 337 335 336 335 333 334 336 336 336 336 336 336 336 336 337 337 337 337 337 338 339 340 340 340 340 339 335 333 333 332 331 330 331
319 320 323 322 323 323 328 336 334 337 335 318 316 319 316 324 323 321 326 324 326 325 325 324 322 323 321 321 319 320 321 322 325 324 329 332 326 326 324 324 328 327 332 336 338 335 335 339 341 342 342 342 342 342 342 341 341 341 341 341 341 341 341 340 337 336 336 335 335 336 336 336 336 335 335 336 334 335 336 336 336 336 336 337 338 339 340 339 339 339 337 335 334 333 331 331 330
322 322 323 321 324 324 338 341 335 336 327 314 316 322 319 320 322 324 328 326 328 326 324 323 322 324 321 322 320 320 323 320 323 334 337 328 327 326 321 326 330 330 331 334 338 336 334 337 340 342 342 342 342 341 341 341 342 341 341 341 341 341 341 340 337 336 336 336 336 336 336 336 335 335 335 335 332 332 334 334 334 335 336 337 338 339 339 339 339 338 337 335 334 334 333 331 329
323 324 323 323 330 334 346 338 337 338 323 318 316 322 327 322 324 326 327 327 327 324 322 322 322 322 320 323 321 318 322 319 321 336 339 325 326 324 321 328 332 332 332 335 338 337 334 335 339 341 342 342 341 342 341 341 342 341 341 340 340 341 340 339 337 336 336 337 337 337 336 336 335 335 335 335 334 331 331 331 333 334 336 337 338 339 339 338 338 337 335 334 333 334 334 333 332
322 325 321 323 333 333 338 330 335 333 319 325 317 321 334 326 324 323 323 324 324 323 323 323 322 321 319 321 321 320 322 321 319 326 328 324 327 323 322 327 332 334 334 336 337 338 335 334 338 340 341 341 341 342 341 341 341 341 341 340 340 340 339 338 336 336 337 337 337 336 336 336 336 336 336 336 335 332 329 329 331 334 336 337 338 338 338 337 337 336 334 333 331 331 334 335 333
322 324 321 322 322 322 334 325 324 327 326 333 321 322 328 324 323 320 321 321 322 322 322 322 321 321 321 322 320 319 321 319 319 324 325 324 326 323 323 324 330 335 335 337 337 338 335 334 336 339 340 340 341 342 341 341 341 341 340 339 340 339 337 336 336 336 337 338 336 336 337 338 338 338 338 337 335 332 330 329 331 334 335 337 337 337 337 337 335 334 332 331 330 329 330 333 333
321 323 327 330 323 325 336 324 324 332 327 326 323 323 323 322 322 320 322 320 321 321 321 322 321 320 320 322 319 319 321 319 319 324 324 322 322 322 323 323 327 332 335 337 337 337 335 334 335 338 339 339 340 341 341 341 341 340 339 339 340 336 334 336 336 336 337 337 336 337 338 339 339 339 339 337 336 335 333 331 332 335 336 336 337 336 336 335 334 333 331 330 330 328 326 331 331
323 322 330 340 335 335 335 324 330 333 322 320 323 323 322 323 323 322 322 320 321 320 321 323 321 321 320 319 321 321 320 321 321 322 323 322 320 320 322 323 325 329 334 336 337 336 334 333 333 336 338 339 339 340 341 340 340 340 339 339 339 335 334 337 336 337 337 337 336 337 339 339 338 338 338 338 336 336 336 333 333 335 335 336 336 335 334 333 332 331 331 329 329 326 325 328 321
322 320 328 337 336 339 337 328 327 324 324 323 319 321 322 321 323 323 322 321 320 321 322 323 322 321 320 320 324 322 320 323 322 322 321 321 319 319 322 322 323 326 331 336 337 337 334 333 332 335 337 338 338 339 340 339 339 339 339 339 338 335 336 338 337 338 337 336 337 337 340 339 339 338 338 338 336 335 336 334 332 333 333 334 335 334 333 332 331 330 329 328 327 323 319 317 308
325 323 327 336 336 334 330 328 326 321 323 326 320 320 322 319 322 322 322 321 319 321 320 321 320 320 321 320 324 322 321 324 321 321 319 319 319 319 322 322 323 324 328 333 337 338 335 333 332 334 335 337 337 338 338 338 339 339 339 338 337 336 337 338 337 338 337 337 337 337 339 338 339 338 338 338 336 335 335 335 333 332 332 332 333 333 332 331 330 329 329 328 325 320 311 306 301
336 333 337 341 334 326 322 325 329 327 326 326 322 322 322 320 322 322 321 319 318 320 317 318 319 321 321 321 327 323 322 324 320 320 318 319 319 318 321 324 326 325 325 330 334 337 337 334 333 333 334 335 336 337 337 337 339 339 339 338 337 336 336 338 338 338 337 337 337 337 339 338 339 338 339 338 337 335 334 335 334 333 332 331 332 332 331 330 328 328 329 327 323 315 306 302 299
335 338 349 344 327 324 326 326 326 332 334 324 320 322 321 320 321 320 320 318 318 319 317 318 319 320 320 323 327 321 321 324 321 319 317 318 319 319 321 325 328 328 328 329 332 336 337 337 335 333 333 334 336 337 336 337 339 339 338 337 337 336 336 337 337 338 337 337 336 337 338 337 338 338 339 338 337 336 334 334 333 332 332 331 330 330 329 328 327 327 327 327 323 314 304 299 298
332 333 343 329 324 326 323 325 329 335 337 325 319 321 318 318 320 319 320 319 318 318 317 320 318 318 319 322 324 322 322 322 320 318 317 318 320 320 322 326 328 330 333 332 332 334 337 339 337 335 334 334 335 337 336 336 338 339 339 337 337 336 336 336 336 337 336 336 336 337 337 337 338 338 339 338 337 336 334 334 332 331 331 330 329 328 328 326 327 326 326 326 321 310 301 298 298
327 333 336 319 324 329 321 323 327 326 326 326 322 320 319 318 320 321 320 319 321 318 316 319 317 317 318 318 327 335 327 319 320 320 318 319 321 322 324 328 328 329 332 333 333 333 336 339 339 337 335 334 335 337 338 337 337 338 338 337 337 336 336 336 336 336 335 335 335 337 338 337 338 338 338 338 337 336 334 333 332 331 330 329 327 326 327 326 326 325 325 324 317 306 299 298 298
324 340 341 325 327 330 324 321 323 321 320 326 322 317 319 316 318 321 319 317 320 318 314 316 315 316 317 315 324 331 323 318 322 322 320 320 322 323 327 330 330 328 330 333 334 332 334 338 339 339 337 336 335 336 337 337 337 337 337 337 337 337 337 337 337 337 336 334 334 336 337 336 338 338 338 338 337 336 334 333 332 331 329 328 326 324 325 326 325 325 324 322 315 305 298 297 298
329 345 339 327 327 324 324 322 323 325 320 326 323 316 318 317 317 318 318 316 317 318 315 316 315 315 318 317 318 317 316 319 323 322 320 321 325 326 328 330 331 331 331 333 334 332 333 336 339 339 338 338 337 336 336 336 336 337 337 337 337 337 337 337 337 337 336 334 334 335 336 336 337 338 338 338 337 336 334 333 332 331 329 328 326 324 323 325 324 324 324 321 314 304 298 297 298
339 344 332 325 326 323 326 324 322 323 320 326 324 317 316 317 318 316 315 315 318 319 318 318 315 315 318 318 316 314 315 320 322 323 323 324 328 328 329 329 329 331 333 334 334 334 334 336 338 338 339 338 338 337 336 336 335 336 337 337 337 337 337 336 336 336 335 334 333 334 335 336 337 338 338 337 337 336 334 333 332 331 329 328 326 323 322 323 323 322 322 319 312 303 298 297 297
341 336 325 324 328 328 332 326 319 319 319 320 319 317 316 317 318 316 315 317 320 319 317 317 315 314 315 315 314 313 316 320 322 323 325 327 329 328 329 328 327 328 330 333 334 334 335 335 337 337 338 338 338 338 337 336 335 336 337 337 337 336 337 337 336 335 334 334 334 334 335 335 337 337 337 337 337 336 334 333 332 330 329 328 326 324 322 322 322 322 321 316 308 301 297 297 297
336 332 322 329 337 333 330 324 317 317 318 317 318 318 316 316 316 315 315 318 319 317 316 316 316 315 313 313 313 313 316 319 321 321 323 325 326 326 325 325 326 324 324 328 329 332 334 335 336 336 336 337 338 338 337 337 336 336 336 337 337 337 337 337 336 335 334 334 334 334 334 335 336 337 336 336 336 335 334 333 332 330 329 328 326 325 322 322 322 321 320 313 302 299 297 297 297
331 328 323 337 341 331 327 322 319 317 315 317 319 318 317 318 317 315 315 318 318 316 316 315 316 316 314 314 312 314 318 320 321 321 321 321 321 321 321 321 322 321 319 320 322 325 330 332 334 334 335 336 337 337 337 337 337 337 336 336 337 337 338 337 336 335 334 334 334 335 334 335 336 337 336 336 336 335 334 333 331 330 329 328 326 325 323 321 320 320 319 309 298 298 297 297 297
324 323 328 340 332 324 326 324 322 319 316 317 318 318 318 317 317 316 315 317 317 315 316 316 316 315 315 314 311 313 318 319 321 321 320 319 319 319 319 320 319 319 319 318 319 320 324 328 330 332 334 335 335 336 336 337 337 337 337 336 337 337 338 338 337 335 334 334 334 335 334 334 336 337 336 336 335 335 334 332 331 329 328 327 326 325 324 321 320 319 317 307 298 298 297 297 297
321 323 328 334 325 320 324 324 321 318 317 318 318 318 317 316 316 316 316 316 316 315 316 316 316 315 315 314 311 311 314 317 317 318 320 319 319 319 319 319 318 319 319 319 319 319 320 322 325 329 332 333 334 334 334 335 336 337 336 336 337 337 338 338 337 336 335 334 335 335 334 334 336 337 336 335 335 334 333 331 330 329 328 327 326 325 324 321 319 319 316 307 299 298 297 297 297
321 323 325 327 322 319 321 321 319 318 316 317 319 317 315 317 317 317 317 317 316 315 315 316 315 313 312 311 311 312 315 316 313 313 317 317 317 318 317 317 318 318 319 319 318 319 319 320 322 326 329 331 332 333 334 334 334 335 335 335 336 337 337 337 337 336 335 335 335 336 334 334 336 337 336 336 335 334 332 331 329 328 328 327 326 325 324 321 319 318 316 309 301 298 297 296 297
321 323 324 324 321 320 320 319 318 318 315 316 317 315 315 317 316 317 317 316 316 315 314 313 311 310 310 311 312 313 314 312 309 310 311 312 313 313 314 315 316 317 318 319 320 320 319 319 321 322 326 328 329 332 334 334 333 333 333 333 334 336 337 337 336 336 335 335 335 336 335 334 335 335 336 336 335 333 332 331 329 328 328 327 326 325 323 321 318 317 316 312 304 299 297 296 297
321 321 321 319 319 320 320 317 317 317 315 315 315 315 315 315 314 315 315 315 315 314 314 313 312 312 312 313 313 312 312 308 307 308 308 309 310 311 312 313 315 316 316 318 319 320 320 321 322 322 323 325 327 330 333 333 333 333 332 332 333 335 336 336 336 335 335 335 334 335 335 334 334 334 334 335 334 333 331 330 329 328 328 327 326 324 323 320 317 317 317 314 306 300 297 296 297
318 317 317 316 316 316 317 316 316 316 315 313 313 315 314 313 314 314 316 316 315 314 314 315 314 314 315 313 309 309 311 308 305 307 307 308 309 309 309 310 312 313 314 316 317 318 320 321 322 322 323 323 326 329 331 332 333 334 333 333 333 334 335 336 335 334 334 334 334 334 335 334 333 333 334 334 333 332 331 329 328 328 327 327 326 324 323 320 317 316 316 314 309 303 298 296 297
315 314 315 316 315 315 315 316 315 313 313 313 313 315 314 313 314 314 318 318 314 314 315 315 312 313 313 310 307 307 308 307 306 306 306 306 306 306 306 308 309 310 312 314 315 317 318 319 321 323 323 324 325 328 329 331 333 333 333 333 333 334 335 335 335 334 333 333 333 334 334 334 334 333 333 334 332 331 330 329 328 328 327 326 325 324 323 321 317 315 314 314 311 306 300 297 296
313 313 315 317 316 315 315 315 314 313 313 315 315 315 315 313 314 316 317 317 314 313 315 314 312 313 311 309 308 307 306 306 305 305 305 304 304 304 304 306 307 309 310 311 313 316 318 318 319 322 324 325 325 326 328 330 332 332 334 334 333 334 334 334 334 334 333 332 332 333 334 334 334 334 333 333 332 331 330 329 328 327 327 326 325 324 323 321 318 316 316 316 314 310 305 300 296
314 313 315 317 317 317 316 315 314 312 314 316 315 315 318 316 316 319 317 315 313 313 315 313 312 312 310 309 308 306 305 304 304 303 303 303 303 303 304 304 306 308 310 311 313 314 317 318 318 320 324 326 326 326 326 328 330 331 333 333 333 334 333 334 334 334 334 333 332 333 333 334 334 334 333 333 332 331 330 329 328 327 327 325 325 324 323 321 317 317 318 318 317 314 310 304 298
315 313 313 315 316 319 318 314 313 313 314 315 314 316 322 322 318 318 315 312 312 314 315 313 312 310 308 308 307 305 304 303 303 302 302 302 302 302 303 305 306 308 310 311 314 315 317 317 317 319 323 326 326 326 327 327 329 330 332 333 333 333 333 334 334 334 333 333 333 333 333 333 334 333 333 333 332 331 330 329 328 327 326 325 324 324 322 320 317 317 319 319 319 316 312 306 300
314 312 316 318 315 323 324 315 315 316 315 313 313 316 322 323 319 319 315 310 311 315 315 312 311 309 306 307 306 304 303 302 302 301 301 301 301 302 302 304 306 308 310 312 315 318 319 320 320 321 323 326 328 328 328 328 329 330 331 332 332 332 332 332 333 333 333 333 333 332 332 332 333 333 332 332 331 331 330 329 328 327 326 325 324 323 322 320 317 317 318 319 319 316 314 308 301
320 314 324 326 316 322 325 316 316 318 315 312 313 318 320 318 319 321 317 312 311 314 313 311 312 310 307 307 305 303 303 301 301 300 300 300 300 301 301 303 305 306 309 312 314 316 318 320 322 323 324 326 328 329 329 329 330 330 331 331 332 332 331 331 331 332 332 332 332 331 331 331 331 332 332 331 331 330 329 328 328 326 325 325 324 323 321 320 318 317 318 318 318 317 314 308 302
328 318 324 330 319 319 322 318 318 316 314 312 313 317 318 318 321 319 317 314 312 313 313 310 312 310 306 305 304 303 301 300 300 299 299 299 299 300 300 302 303 305 307 310 312 313 314 316 319 321 322 324 326 327 328 329 329 330 330 331 331 331 331 331 330 330 330 330 330 330 330 330 330 330 330 330 330 329 328 328 327 326 325 325 324 323 321 319 317 316 317 317 317 316 313 308 302
330 321 319 325 321 317 319 321 320 316 316 315 314 315 315 317 318 317 316 314 312 313 312 312 312 308 306 304 303 302 301 300 299 298 298 298 298 299 300 301 302 305 306 307 309 310 311 312 315 317 319 321 323 325 326 326 327 328 329 329 329 329 329 329 329 329 329 329 329 329 329 329 329 329 329 329 329 328 327 327 326 325 325 324 323 322 321 319 317 317 317 317 316 315 313 309 304
328 325 321 323 322 318 319 321 321 318 318 318 318 317 316 317 316 316 316 312 311 314 313 314 312 307 305 304 303 302 300 300 298 298 298 297 298 298 299 300 302 303 305 306 307 309 310 310 312 314 317 319 322 324 324 325 325 326 326 327 327 327 327 327 328 328 328 328 329 329 329 328 329 329 328 328 328 327 327 326 326 325 324 324 323 322 320 319 318 317 317 316 315 314 312 310 305
323 322 321 322 322 320 319 318 320 317 316 319 318 317 317 318 318 317 315 312 312 314 314 315 310 306 305 303 302 301 300 300 299 298 297 297 297 297 298 299 300 302 303 305 306 307 308 309 310 311 313 316 319 320 321 322 324 324 324 324 324 325 325 325 326 326 326 327 327 327 327 327 327 327 327 327 327 327 326 325 325 324 324 323 322 321 320 319 318 318 317 316 314 312 309 307 304
316 317 318 319 319 319 317 318 320 316 314 319 318 316 319 318 318 316 313 313 315 312 313 314 308 305 304 303 302 301 300 299 298 297 297 296 296 296 297 297 299 301 302 303 304 304 305 306 308 308 310 313 315 315 317 318 319 320 321 322 322 322 323 323 323 324 324 324 325 325 325 326 326 326 326 326 326 326 325 325 324 324 323 322 321 321 320 319 318 318 317 315 313 311 308 305 302
313 316 317 318 318 319 318 318 318 314 314 321 318 316 319 318 316 315 313 315 314 311 311 310 306 305 304 303 302 301 300 299 297 296 296 296 296 296 296 296 297 298 298 300 301 302 304 305 305 306 307 309 310 311 312 313 314 316 318 319 319 319 320 320 320 321 321 321 322 322 322 323 323 324 324 324 325 325 324 324 323 323 322 322 321 320 319 318 317 317 316 313 311 309 308 305 302
316 318 318 320 320 320 321 319 318 316 315 323 323 317 318 318 315 314 313 312 309 307 308 307 305 304 303 302 301 300 299 298 297 296 295 295 295 295 295 295 295 295 296 297 299 301 303 303 304 304 305 306 307 308 309 310 311 312 314 315 316 316 316 315 316 317 317 318 318 319 319 319 320 320 321 322 322 322 322 322 321 321 321 320 320 319 318 317 316 315 314 313 310 306 305 303 301
320 320 318 321 320 319 323 321 320 319 315 319 320 317 319 319 315 313 310 309 307 305 305 305 304 303 302 301 300 299 298 298 297 296 295 295 294 294 294 295 295 295 295 296 297 298 299 301 302 303 304 305 305 306 307 307 308 310 311 311 312 312 312 312 314 313 313 313 313 314 314 315 316 316 317 317 318 318 318 318 318 318 318 317 317 317 316 316 315 314 313 312 309 305 302 301 300
325 324 320 321 321 320 322 321 321 321 319 318 316 320 329 325 318 314 311 309 307 305 304 304 303 302 301 300 299 298 298 297 297 296 295 294 294 294 293 294 294 294 294 295 295 295 296 298 300 301 303 303 304 305 306 306 307 307 308 308 308 308 308 309 310 309 309 309 308 309 309 309 309 310 311 312 313 314 314 314 314 315 315 314 314 313 314 314 314 313 312 311 308 306 303 301 300
326 328 323 320 321 321 320 320 321 324 324 319 315 323 334 333 325 317 313 311 309 306 305 304 303 302 301 300 299 298 297 297 296 295 294 293 293 293 293 293 293 294 294 294 294 294 295 296 298 299 300 301 303 303 304 305 305 305 305 305 304 304 304 304 304 306 307 307 307 307 305 304 305 305 305 306 307 309 309 310 311 311 311 311 311 311 311 311 310 311 310 309 308 307 305 301 299
322 324 324 322 321 320 320 319 319 324 325 319 317 322 327 331 329 319 315 314 310 306 305 304 302 301 300 299 299 298 297 296 295 294 293 292 292 292 292 292 293 293 293 294 294 295 295 295 296 296 297 298 300 301 303 304 304 304 303 302 302 302 302 302 302 303 304 305 306 306 304 303 303 303 303 303 303 304 305 306 307 308 308 308 309 309 308 308 308 308 308 308 306 306 304 300 300
325 323 325 326 321 320 323 320 318 323 322 320 322 319 319 324 323 317 316 316 312 307 306 303 302 301 299 299 298 298 297 296 296 295 294 292 292 292 292 292 292 292 294 295 295 295 295 295 295 296 296 296 297 298 300 300 301 301 302 301 301 300 300 300 301 302 302 303 304 303 303 303 303 303 303 302 302 302 302 302 303 304 305 306 306 306 307 307 306 306 306 306 305 304 303 300 300
325 321 321 322 318 321 323 319 320 320 316 323 326 317 316 324 324 320 317 316 314 309 306 304 302 301 300 299 299 298 297 297 295 295 294 292 292 292 292 292 292 293 293 294 295 295 296 296 297 297 296 295 296 296 297 298 298 299 299 299 299 299 299 299 300 301 301 301 301 301 301 301 302 302 303 302 302 302 301 301 301 301 302 303 303 304 304 305 305 305 304 304 304 303 303 302 300
320 317 320 324 324 324 320 317 320 319 315 323 326 319 319 325 329 324 316 316 318 310 305 304 302 301 300 299 299 298 298 297 295 293 292 292 292 292 292 292 292 292 292 293 294 295 296 297 298 297 296 296 296 296 296 296 297 297 297 297 297 297 297 298 299 299 299 299 299 299 299 299 299 300 300 300 301 301 301 301 300 300 300 300 301 301 301 302 302 303 303 303 302 301 301 301 300
316 318 323 327 329 327 324 323 322 319 321 326 324 320 319 323 332 327 317 317 317 310 306 304 302 301 300 299 299 299 298 297 296 293 292 292 292 291 292 291 291 292 292 292 293 293 294 295 295 295 295 295 296 296 296 296 296 296 295 295 295 294 295 296 296 296 295 296 296 296 297 297 298 298 298 299 299 299 299 300 300 300 300 300 300 299 299 300 300 300 301 301 301 301 300 299 299
317 323 325 324 328 327 325 327 323 320 327 328 322 319 316 321 330 322 314 314 312 310 308 303 302 301 300 299 299 298 298 297 297 295 293 291 291 291 291 291 291 291 292 291 292 292 292 292 292 292 292 292 293 294 295 295 295 295 294 294 294 293 293 293 293 293 293 293 293 293 294 295 295 296 296 296 296 296 297 298 299 299 299 299 299 299 299 299 298 299 299 299 300 300 300 299 298
321 323 324 323 324 322 321 325 323 323 326 321 317 318 317 321 322 311 306 306 307 309 307 302 301 300 299 299 298 298 298 297 296 296 294 290 290 290 290 290 290 291 291 291 291 291 291 291 291 291 290 290 291 291 292 293 293 293 292 292 292 292 292 292 292 292 292 292 292 292 293 292 293 293 293 293 293 294 294 295 296 297 298 299 299 299 299 299 298 298 298 298 298 299 299 299 298
317 319 324 325 322 320 322 323 319 319 322 316 314 317 319 322 316 306 302 301 301 303 303 301 300 299 299 299 299 298 298 297 296 295 293 290 289 290 290 290 290 290 290 290 290 290 290 290 290 290 289 289 289 289 290 290 290 290 290 290 290 290 290 289 289 289 290 290 291 291 291 291 291 291 291 291 291 292 292 293 294 295 296 297 297 298 298 298 298 297 297 297 297 298 298 298 298
316 320 322 322 325 325 323 323 319 319 324 319 313 317 323 322 312 303 301 300 298 299 299 299 299 299 299 299 299 299 298 297 296 295 293 289 289 290 290 290 290 289 290 289 289 289 289 289 289 289 289 288 288 288 288 288 287 287 288 288 288 287 287 287 287 287 287 287 287 288 288 288 288 288 289 290 290 291 291 292 292 293 293 294 294 295 296 296 296 296 297 296 296 297 297 297 297
315 317 318 318 324 325 319 321 322 320 323 322 319 320 320 313 306 302 302 300 299 299 298 299 300 299 299 299 299 299 298 297 296 296 293 289 290 291 290 291 290 290 289 289 289 289 288 288 288 288 288 287 287 287 287 286 286 286 286 286 286 286 286 286 286 286 285 285 285 285 286 286 286 286 286 286 287 288 289 289 290 291 291 292 292 292 293 293 294 295 295 295 295 296 295 296 296
316 315 322 322 319 320 320 321 318 316 319 320 320 320 313 308 308 305 303 302 300 300 299 300 300 299 300 301 300 299 298 297 297 296 292 290 291 291 291 291 290 290 289 289 289 288 288 288 288 288 288 287 287 287 286 286 286 286 285 285 285 285 285 285 285 285 285 285 285 285 285 285 285 285 285 285 285 285 286 286 287 287 289 290 290 291 291 291 292 292 293 294 294 294 295 295 295
319 319 324 320 315 319 324 323 321 319 320 319 320 320 315 314 314 307 304 305 302 300 301 301 300 300 301 303 302 301 299 296 296 294 291 290 291 291 291 291 290 290 289 288 288 288 288 288 288 288 288 287 287 287 286 286 286 285 285 285 285 285 285 285 285 285 285 285 285 285 286 286 285 286 286 285 285 285 285 285 285 285 285 286 287 288 289 290 291 291 291 292 292 293 293 294 294
318 321 320 317 318 323 322 321 322 322 320 321 323 321 318 319 317 311 309 307 304 302 302 302 301 301 303 303 302 301 299 297 296 295 292 290 291 291 291 291 290 290 289 288 288 287 287 288 287 287 287 287 287 287 286 286 286 286 285 285 285 285 285 285 285 285 286 286 286 286 286 286 286 286 286 286 286 286 286 286 286 286 285 285 285 285 286 287 287 288 289 289 290 291 291 292 292
313 316 315 316 320 323 321 319 321 322 319 320 321 319 321 324 321 317 312 306 305 304 303 302 303 303 303 304 303 301 300 298 297 297 294 290 291 292 291 291 291 290 289 288 288 287 287 287 287 287 287 287 287 287 286 286 286 286 286 286 286 286 286 286 286 286 286 287 287 287 287 287 287 287 287 287 287 287 287 287 287 287 286 286 286 286 285 285 285 285 285 286 287 288 289 290 291
316 318 317 317 316 318 320 316 318 323 321 321 319 317 323 323 315 314 311 304 304 305 304 304 304 303 302 303 303 300 299 299 297 297 294 291 292 292 291 292 291 291 291 289 289 288 287 287 287 286 286 286 286 286 286 286 286 286 286 286 286 286 286 287 287 287 287 287 287 287 287 287 287 287 287 287 287 287 287 286 287 287 287 287 286 286 286 286 286 286 285 285 285 285 286 287 288
323 323 321 320 318 318 319 316 317 319 319 321 319 318 323 316 308 309 308 304 304 303 305 306 304 303 303 302 300 298 298 299 298 297 293 291 292 292 291 292 292 292 292 291 290 289 288 288 287 287 287 286 286 286 286 286 286 286 286 286 286 286 286 286 286 286 286 286 285 285 285 285 286 286 286 286 286 286 286 286 286 286 287 287 287 287 286 286 286 286 286 286 286 285 285 285 285
Wind_Speed
8 8 7 8 9 6 4 4 3 3 4 2 2 1 2 2 1 1 1 2 1 3 4 2 2 3 1 2 4 5 5 5 5 3 2 5 2 10 16 18 11 10 18 21 25 29 30 29 27 26 25 25 23 22 21 20 20 19 18 17 16 15 14 13 13 12 12 12 12 12 12 11 10 10 10 10 9 8 8 8 8 7 6 6 6 7 7 7 7 6 6 6 6 7 7 7 7
8 7 6 6 6 4 1 3 4 3 5 3 2 1 2 3 2 3 5 4 4 4 3 2 0 1 2 2 2 1 3 5 6 3 3 2 3 11 16 18 14 11 17 20 24 28 31 30 28 27 26 26 25 24 22 21 20 19 18 17 16 15 14 14 14 14 13 13 12 12 11 10 9 9 10 9 8 8 8 7 7 6 6 5 6 7 8 8 7 6 6 5 5 5 6 6 6
9 7 7 4 3 4 1 4 4 2 5 3 2 3 1 2 2 5 8 7 7 4 1 0 1 0 4 4 1 2 3 4 4 2 1 3 4 9 17 17 13 12 16 18 22 27 30 31 29 27 26 26 25 25 24 23 21 20 19 18 17 16 15 14 15 15 15 14 12 12 10 9 9 9 9 8 8 8 8 8 7 6 5 5 6 8 8 8 6 5 4 3 3 4 6 6 5
9 8 9 4 3 4 4 4 3 4 4 2 1 4 2 3 6 6 7 7 6 1 2 1 1 1 3 2 1 2 3 3 4 3 1 7 6 8 17 15 12 13 16 17 20 25 29 31 30 28 26 25 24 24 24 24 23 21 21 19 18 17 15 15 15 16 15 14 12 11 10 10 10 9 9 8 8 8 9 10 8 7 6 6 7 8 8 7 5 3 2 2 1 4 6 6 5
7 6 7 5 3 2 3 3 2 4 3 4 2 4 5 6 6 6 7 5 3 1 2 2 1 2 1 2 2 1 4 2 3 5 4 9 8 10 16 13 13 15 17 17 19 23 28 30 30 28 27 26 23 23 24 23 22 21 21 20 19 18 17 17 16 16 15 14 13 12 10 10 10 10 9 9 9 8 9 10 9 8 7 6 7 7 7 6 5 3 1 1 2 4 7 8 6
7 4 5 6 3 1 3 3 2 1 4 5 3 5 7 6 6 4 4 4 1 1 3 2 0 1 1 3 2 3 4 0 1 6 6 9 9 11 14 12 13 15 17 18 18 21 26 30 30 28 27 26 23 23 24 23 21 20 21 20 19 19 19 19 18 17 16 14 14 12 11 11 11 10 10 10 10 9 9 10 10 9 7 6 6 6 6 5 3 2 1 2 3 5 7 9 7
8 4 4 5 2 2 5 3 2 3 3 5 4 6 7 7 6 2 4 2 2 2 1 1 1 2 2 3 1 2 3 2 3 4 7 9 10 12 13 13 14 16 17 17 18 19 24 29 30 29 28 27 24 23 24 23 22 20 19 19 18 19 19 20 19 18 16 15 14 14 12 12 13 12 11 11 10 10 10 10 10 9 8 8 7 6 6 4 3 2 1 1 4 6 7 9 7
7 3 1 4 2 3 5 2 3 3 1 2 4 6 7 7 5 3 1 0 1 2 1 3 0 2 3 3 1 4 0 4 4 6 8 10 10 12 14 14 15 16 17 17 17 18 22 28 30 30 29 28 26 24 25 24 23 21 20 20 18 19 19 19 18 18 17 16 15 14 13 13 14 14 13 12 11 10 10 11 11 10 10 9 9 8 6 4 2 1 2 1 4 5 5 8 7
4 3 2 4 2 3 3 2 3 2 3 4 3 4 5 4 3 3 1 2 1 1 2 4 1 1 4 5 3 5 2 3 6 8 8 9 10 12 15 14 14 16 17 18 17 17 20 26 30 30 30 29 27 25 26 25 24 22 21 20 19 20 19 18 18 17 17 16 16 15 14 14 14 14 15 14 12 12 11 11 11 10 10 10 10 9 8 6 3 4 4 4 7 7 4 6 5
3 3 2 3 3 3 3 2 2 1 5 5 4 6 5 2 2 3 1 2 1 1 4 3 1 2 3 3 4 3 2 3 6 9 9 10 10 12 15 14 14 15 16 18 17 17 19 24 29 30 30 30 28 27 27 26 25 23 22 22 21 21 21 20 19 18 18 17 16 16 15 15 15 15 16 15 14 13 12 12 11 9 9 10 9 9 9 8 6 5 8 9 10 8 5 4 3
3 4 3 4 4 2 1 3 4 3 6 5 4 6 5 2 3 2 1 2 2 3 2 1 1 2 1 3 5 3 2 6 8 8 9 10 11 12 14 15 15 15 16 17 17 17 18 21 26 29 30 30 29 28 27 27 26 24 24 23 22 22 23 21 20 19 19 18 17 16 16 16 15 16 17 15 14 13 12 12 11 10 9 9 9 10 10 9 7 6 9 12 9 6 4 2 3
3 4 4 4 2 2 2 2 5 5 6 4 3 6 2 1 3 1 2 2 2 4 2 2 1 2 1 4 5 4 3 9 9 6 8 10 10 10 14 17 16 16 16 16 17 18 18 20 24 28 29 29 29 29 27 27 27 26 25 25 23 23 24 23 22 20 20 20 19 18 18 17 15 17 17 16 15 14 12 11 11 10 9 9 9 10 9 8 8 9 12 14 11 7 4 3 4
3 1 4 2 2 2 2 2 5 4 5 2 3 5 2 2 2 3 3 1 2 4 4 6 3 3 1 4 4 5 4 9 9 7 8 9 9 10 14 17 16 17 17 17 18 18 19 20 22 25 28 29 29 29 28 27 27 27 26 25 25 24 24 24 23 22 21 21 20 19 19 18 16 17 18 17 17 15 13 12 12 10 9 9 9 9 9 8 8 11 14 14 11 6 4 5 6
2 2 4 1 0 0 2 2 4 2 3 4 3 4 3 1 3 4 3 3 5 1 2 5 5 2 2 3 5 5 4 8 10 9 9 9 10 11 15 16 16 17 18 19 19 19 20 20 22 23 26 28 30 30 28 28 28 28 27 26 25 25 25 25 24 23 23 22 22 21 20 19 17 18 18 18 18 15 13 13 12 11 10 11 10 9 10 9 10 13 14 13 10 6 5 6 7
2 2 4 3 2 3 2 2 1 3 1 5 3 3 3 3 2 1 2 2 6 4 0 1 4 1 3 1 4 6 3 5 10 11 10 10 11 12 15 16 15 17 18 20 20 20 21 22 23 23 25 28 29 31 30 29 29 29 28 27 26 26 26 25 25 24 23 23 22 22 21 20 18 18 19 18 18 16 15 14 13 11 12 13 11 11 11 10 13 15 14 13 10 6 6 7 7
3 3 5 3 1 2 2 2 2 3 3 5 4 3 4 6 0 1 3 3 4 4 1 2 3 2 4 4 7 7 7 4 10 11 11 11 12 13 14 16 17 17 18 21 22 22 22 23 24 24 26 27 29 31 32 31 30 30 29 28 28 27 27 26 25 24 23 22 22 23 22 21 19 19 20 20 19 17 16 15 13 12 13 12 12 12 11 12 15 15 14 14 10 7 7 8 8
3 4 4 2 1 1 3 3 1 1 5 6 6 4 1 7 3 1 2 2 3 5 3 5 4 2 6 6 6 8 8 6 10 11 11 11 13 13 13 15 17 19 20 21 23 23 23 24 25 26 27 28 29 31 32 32 32 31 30 30 29 29 28 26 25 25 24 23 23 23 23 21 20 21 22 22 20 19 18 16 15 14 13 12 12 12 12 12 14 14 15 14 11 9 9 9 9
4 4 3 0 2 3 4 5 3 1 4 5 6 3 2 5 5 3 3 3 4 6 7 6 5 6 10 11 10 10 8 7 11 12 11 11 12 12 15 16 17 20 22 23 23 24 25 26 26 27 28 29 30 31 32 32 33 32 32 31 31 30 29 28 26 26 25 25 24 24 24 23 22 23 24 23 22 20 19 18 16 15 14 13 13 13 13 13 14 14 13 14 13 10 10 10 9
3 3 2 2 5 5 5 6 3 2 4 6 6 3 2 4 3 2 3 6 6 7 10 7 8 10 11 12 11 10 7 10 12 14 14 14 14 15 17 18 19 21 22 24 25 25 26 27 28 28 28 29 30 32 32 33 33 33 33 33 32 32 31 30 28 27 27 26 26 25 25 24 23 24 25 24 23 22 20 19 17 16 15 15 14 14 14 14 15 13 11 14 13 11 11 11 10
2 3 1 5 6 5 5 6 5 5 5 5 6 3 3 5 3 1 3 8 8 7 9 7 10 13 9 6 6 6 8 11 13 14 15 17 18 19 20 20 22 24 24 23 23 24 27 28 29 29 29 29 30 32 33 33 34 33 34 34 33 33 32 31 30 29 28 28 27 27 26 25 25 25 25 25 24 22 20 19 18 17 16 16 16 15 15 15 16 14 12 14 14 13 13 12 12
1 4 4 7 4 3 7 7 6 5 2 3 6 5 7 5 2 0 2 7 10 8 7 8 11 14 12 7 4 6 8 10 13 15 16 18 20 22 23 24 25 25 23 21 22 24 26 28 29 29 30 29 30 32 33 34 34 34 34 34 34 34 34 33 31 30 30 29 28 28 27 26 26 26 26 25 24 23 21 21 20 19 18 17 17 16 17 17 17 17 16 16 15 14 14 13 13
2 3 6 6 4 3 8 6 4 4 3 6 6 5 6 3 0 1 2 5 9 8 7 9 11 12 12 11 7 5 7 9 11 14 17 19 21 24 26 27 27 26 24 23 23 23 23 26 28 29 30 30 30 31 32 33 34 34 34 34 35 35 35 34 33 32 31 30 29 28 28 27 27 28 27 26 26 24 23 23 22 20 20 19 19 19 18 19 20 20 20 18 16 15 15 14 14
2 4 4 5 5 5 6 4 4 4 4 6 5 4 3 4 5 3 6 9 11 11 9 8 10 13 13 11 8 7 7 7 9 14 18 20 22 24 26 26 26 26 25 26 24 22 22 23 25 28 29 30 30 31 31 32 33 34 33 34 34 35 35 34 34 33 32 31 30 29 29 28 29 29 28 27 27 25 24 24 23 22 21 21 21 20 20 21 22 23 22 19 17 16 16 15 15
4 4 5 5 5 6 6 5 6 5 5 8 3 4 5 6 6 2 6 12 13 14 10 7 12 16 14 9 7 8 8 9 11 13 12 13 18 21 21 20 21 21 22 25 23 22 21 20 23 26 28 29 30 30 31 31 32 33 32 32 33 34 34 35 34 33 32 32 31 30 29 29 29 29 29 28 27 26 25 25 24 23 23 22 22 22 22 23 24 24 24 21 18 17 17 16 16
4 5 4 4 3 5 7 6 8 8 7 6 4 7 9 9 4 3 11 16 15 13 8 6 9 11 11 8 7 6 7 10 12 12 12 12 11 10 10 11 12 13 14 18 20 21 21 20 21 23 26 28 29 30 31 31 31 31 32 32 33 34 35 35 34 33 33 33 32 31 30 30 30 30 30 30 28 27 27 26 25 25 24 23 23 23 24 25 26 26 26 23 20 19 19 18 17
4 5 3 3 4 6 6 7 9 8 5 2 3 11 11 7 3 4 12 15 12 8 6 6 5 7 9 7 8 8 8 10 14 15 18 21 21 19 17 16 11 7 7 10 14 17 19 19 20 21 23 25 27 29 30 31 31 31 31 32 32 33 35 35 34 33 33 33 33 33 32 31 31 31 31 30 29 29 28 27 27 26 25 25 25 25 25 26 28 28 28 26 22 20 20 19 19
3 3 4 5 6 7 5 8 11 7 5 4 5 12 11 4 1 3 10 11 6 6 7 8 5 6 7 6 8 9 10 13 15 16 20 23 25 24 23 22 18 14 10 7 7 10 13 15 17 20 21 23 25 27 29 30 31 32 31 31 31 32 33 34 33 33 33 33 33 33 33 32 32 32 31 31 30 29 28 28 28 27 27 26 26 25 25 26 29 29 29 27 24 22 20 20 19
1 1 7 7 6 8 7 9 9 4 4 5 8 7 7 2 1 6 12 10 5 8 10 9 6 5 6 8 7 8 10 13 17 19 19 19 20 21 22 23 22 18 15 13 10 6 7 9 12 16 19 21 24 25 27 28 29 31 31 31 31 31 31 31 32 32 32 32 32 33 33 32 32 32 32 31 30 30 29 29 29 28 28 27 26 25 25 26 28 29 29 28 25 22 21 21 20
0 3 5 9 7 8 11 8 4 1 2 4 8 2 7 1 6 11 13 8 7 8 11 9 6 5 6 8 7 8 9 14 18 19 17 17 19 20 21 22 22 20 18 16 12 8 5 5 7 11 16 20 22 23 25 26 27 28 29 30 30 30 30 30 30 30 30 30 30 30 31 32 33 33 32 32 31 31 30 30 30 29 28 27 26 25 25 25 28 29 29 28 26 24 23 23 23
3 2 1 6 6 6 9 3 1 1 2 6 7 1 6 7 10 12 11 7 7 9 10 6 6 5 6 7 7 8 10 14 16 18 19 19 20 21 22 21 21 21 18 16 13 11 8 4 4 7 12 17 20 21 23 24 25 26 26 27 27 28 29 30 30 30 29 29 29 29 29 31 32 33 32 32 31 31 32 31 31 30 29 27 25 25 25 25 28 29 29 28 28 26 25 25 26
2 2 1 3 2 5 8 3 1 4 2 6 6 2 6 9 11 13 10 4 3 8 9 6 7 5 7 6 7 7 9 13 16 18 21 21 22 22 23 23 23 22 20 19 18 16 13 8 4 4 9 13 17 19 21 21 22 23 23 23 24 25 25 27 28 28 28 28 28 28 28 29 30 31 32 32 32 32 32 32 31 30 29 27 26 25 25 25 27 29 29 28 28 27 25 25 27
2 1 3 3 2 5 11 7 3 3 3 4 6 2 5 8 10 13 10 3 1 7 8 6 6 6 7 6 7 6 7 12 17 21 22 23 23 23 24 24 25 25 24 22 21 21 19 17 12 6 2 6 11 15 17 18 19 19 20 20 21 21 21 23 23 25 25 26 26 26 27 28 28 30 31 31 32 32 32 32 31 30 29 28 26 25 25 26 27 29 29 28 28 27 26 26 27
3 1 4 3 3 3 7 7 2 3 1 2 3 3 4 6 8 11 10 8 7 7 8 6 6 7 7 5 6 6 6 10 15 20 23 23 23 24 24 25 26 26 27 25 24 24 24 22 19 15 12 7 3 5 9 12 13 14 15 16 16 17 17 19 20 22 22 23 24 24 25 26 27 28 29 30 30 31 31 31 31 30 29 28 27 26 25 26 27 28 29 28 28 27 26 27 27
3 1 3 4 4 3 3 6 4 3 3 1 3 3 5 8 9 12 12 10 9 8 9 6 6 6 6 6 7 7 7 9 10 16 21 23 24 24 25 26 27 27 28 27 27 26 25 24 22 19 17 15 12 7 2 3 5 7 8 10 10 11 12 14 16 19 20 21 21 22 23 24 26 27 29 29 29 30 30 30 30 29 29 28 27 26 26 26 27 28 28 28 28 28 28 27 28
4 4 3 4 3 4 5 5 5 5 5 4 5 5 8 10 9 10 12 8 6 7 7 4 7 7 6 6 7 7 8 9 10 15 20 22 24 25 26 27 28 29 29 28 28 26 25 25 23 21 20 17 15 12 8 6 3 1 2 3 4 5 6 8 10 13 15 17 18 19 20 21 23 26 28 29 29 29 29 29 29 29 29 28 27 26 26 26 27 28 28 28 28 28 28 27 27
7 6 4 4 4 5 6 5 5 3 4 6 7 7 8 9 10 11 11 5 2 6 4 5 6 6 6 6 6 7 8 8 10 15 20 22 24 25 26 28 29 29 29 29 29 28 27 26 25 25 23 20 16 14 12 9 8 7 5 4 3 3 1 1 3 6 8 10 13 14 16 17 19 21 24 26 27 28 28 28 28 28 28 28 27 27 27 28 28 29 29 29 29 29 28 27 25
3 3 2 5 5 6 6 6 7 1 1 7 5 4 6 8 11 12 10 5 4 5 3 6 6 6 6 7 7 7 8 7 10 16 19 22 25 26 27 29 31 31 31 30 30 30 30 28 27 27 26 22 20 19 18 15 13 10 8 7 6 6 5 4 2 1 1 3 5 7 9 11 13 16 18 21 23 24 25 26 26 27 27 27 28 28 28 29 29 30 30 30 29 29 28 26 25
2 4 4 6 5 6 7 6 6 1 1 5 2 4 8 9 11 10 8 6 7 7 5 8 8 7 6 7 7 6 6 5 9 14 18 22 25 26 29 32 33 33 32 31 31 30 29 29 28 28 25 24 23 21 19 19 17 14 11 9 8 7 7 7 6 5 4 3 3 3 3 4 7 10 13 15 18 20 22 23 24 25 26 27 28 28 29 29 30 31 30 29 28 28 28 26 26
3 3 2 5 4 4 7 5 4 2 0 4 4 4 8 11 9 6 8 6 6 7 7 8 7 8 6 6 6 6 6 6 8 10 16 20 24 27 30 31 32 32 33 33 32 31 30 29 28 27 25 24 23 21 19 18 16 14 13 12 10 10 11 11 10 10 9 7 7 6 5 4 4 5 7 10 12 14 17 19 21 23 24 26 28 29 29 29 29 30 30 30 27 26 26 25 26
4 4 3 5 4 1 4 5 4 3 1 2 4 5 6 9 4 7 7 6 7 8 10 9 7 8 7 6 6 6 6 7 8 8 12 17 22 27 29 29 30 33 34 35 33 32 31 30 28 27 26 25 23 21 19 17 14 12 11 11 10 10 10 9 8 10 11 11 10 10 9 8 7 6 6 7 9 10 12 14 15 18 21 23 25 27 28 28 29 30 30 31 28 25 24 24 26
4 5 5 5 5 5 5 4 5 4 3 2 3 5 4 5 3 3 3 5 7 6 9 9 7 7 6 6 7 6 6 6 7 8 9 14 20 23 26 27 30 33 33 32 32 31 31 30 28 27 26 25 24 22 20 17 16 15 13 11 11 12 12 12 12 13 13 13 13 12 12 11 10 9 8 8 8 10 11 13 14 15 16 18 21 23 25 27 28 30 30 31 30 27 26 26 26
4 5 8 9 7 6 4 2 4 4 4 3 4 4 4 5 4 3 4 3 6 4 7 8 6 6 6 6 6 5 6 6 6 8 9 13 17 21 25 28 30 31 30 29 30 30 31 31 30 28 27 26 24 23 20 19 20 21 21 20 20 20 20 20 19 18 16 14 13 13 13 13 12 11 10 9 9 9 10 12 13 14 15 15 17 19 22 24 25 27 29 29 30 30 27 24 24
3 4 6 7 4 3 2 2 2 1 3 3 3 1 5 6 5 4 5 4 5 4 6 6 5 5 5 5 5 5 6 6 6 8 9 13 17 20 24 26 27 28 27 28 30 31 32 32 32 31 30 28 26 24 21 20 21 22 23 23 23 22 22 21 19 17 15 13 12 12 12 13 13 12 12 12 11 11 11 11 12 13 14 14 15 15 17 19 22 24 26 27 28 29 28 24 23
3 4 4 6 5 5 5 4 1 3 2 4 2 2 3 5 5 4 6 5 4 4 5 5 4 5 5 5 5 5 5 5 6 7 9 13 16 19 21 23 25 26 27 29 30 31 32 32 33 32 32 31 29 26 24 23 22 22 21 21 21 21 20 19 17 16 15 13 12 13 13 12 11 11 12 12 12 12 12 12 12 13 13 14 14 15 14 15 17 20 23 25 26 27 28 27 26
6 5 6 6 5 6 5 4 1 1 1 5 4 2 2 5 5 2 3 5 3 4 4 3 4 4 4 4 4 5 5 5 5 6 8 12 16 18 19 21 24 26 28 29 29 29 30 31 31 31 32 32 30 28 27 26 25 23 23 21 21 20 18 16 15 14 14 14 14 15 15 14 13 11 11 11 11 12 12 12 13 13 13 13 14 15 15 14 14 16 19 22 24 26 27 28 28
4 5 5 4 5 4 4 4 2 2 1 5 6 4 2 4 5 3 1 3 4 4 4 3 4 3 3 4 4 5 5 5 5 7 9 12 15 16 18 21 24 25 26 27 27 28 28 28 29 30 31 30 29 28 28 27 26 26 26 25 23 21 19 17 16 17 17 16 16 17 17 16 16 15 14 13 13 13 13 13 13 13 13 14 14 15 15 15 15 15 16 19 22 24 26 28 29
4 5 5 6 5 4 4 2 3 2 3 6 8 8 5 2 5 3 2 2 4 8 5 4 5 4 3 4 4 4 4 4 4 6 9 12 14 15 19 21 23 24 25 26 27 27 27 27 28 30 30 29 28 27 27 28 27 27 27 26 25 24 22 21 21 22 22 20 20 20 18 17 17 17 16 15 15 15 14 14 14 14 13 13 14 14 15 15 15 16 16 17 19 22 23 25 27
5 5 4 3 4 4 4 4 4 1 5 6 5 5 5 3 4 2 3 6 1 6 9 9 8 5 4 3 3 3 4 3 4 4 7 10 13 15 19 20 22 24 25 26 26 25 26 27 27 29 29 28 27 27 27 27 27 28 27 26 26 25 24 24 25 25 24 24 24 23 22 20 20 19 19 19 19 19 18 16 15 14 14 14 14 15 15 15 16 16 17 17 18 19 21 22 24
5 4 5 3 2 3 3 3 0 3 6 4 2 5 2 5 2 4 6 9 8 2 6 11 10 7 5 3 3 3 3 3 4 4 5 7 10 13 16 19 21 23 24 24 24 24 25 25 25 27 28 27 26 26 26 26 27 27 26 26 25 24 25 25 25 25 24 24 24 24 25 25 24 23 23 22 22 21 20 19 17 16 15 15 15 16 15 15 16 17 17 18 18 19 19 20 22
4 5 4 4 2 1 3 4 2 4 5 3 1 3 2 5 1 5 6 7 8 4 7 8 8 7 6 4 3 2 2 2 3 4 4 6 9 12 14 17 19 20 21 22 23 23 23 23 23 25 25 24 24 25 25 25 25 24 24 24 24 24 24 25 25 25 25 24 24 24 25 25 25 25 24 23 22 21 20 19 18 17 16 16 16 16 16 16 16 17 18 18 19 19 19 20 21
4 4 5 5 4 4 4 4 3 4 5 3 2 1 2 3 1 3 4 4 5 6 8 7 7 5 4 4 3 2 2 2 3 4 4 7 9 11 13 16 17 19 19 20 21 21 22 22 22 23 23 23 23 23 22 23 22 22 22 22 22 22 22 22 23 23 23 24 24 24 24 24 24 24 24 23 22 22 22 20 19 18 17 17 16 17 17 18 18 18 18 18 19 19 20 21 21
2 3 4 3 4 5 2 3 5 3 3 3 2 2 3 2 1 3 3 4 6 7 6 7 6 4 3 4 3 2 1 2 3 4 4 7 10 12 14 16 16 17 18 19 19 19 19 20 20 21 21 21 21 20 20 20 20 20 21 21 21 20 20 21 21 21 22 23 23 23 24 24 23 24 24 24 23 23 23 23 22 21 20 18 18 17 17 18 18 18 18 19 19 19 19 21 21
2 3 3 4 4 5 2 3 0 3 1 4 1 2 2 1 1 2 3 5 6 5 4 5 4 3 3 4 4 4 3 2 3 4 4 7 10 12 14 15 16 16 16 16 16 16 16 17 17 18 18 18 18 18 18 18 19 20 20 20 20 20 20 20 20 20 21 21 21 22 22 22 22 23 23 24 24 24 24 24 24 23 23 21 21 20 19 18 18 18 18 19 19 19 19 20 20
5 3 5 3 1 4 3 1 2 2 2 4 1 3 3 1 2 1 1 2 2 2 2 3 3 2 3 5 5 4 4 2 3 4 5 7 10 11 13 13 14 13 13 12 12 13 14 15 15 15 15 15 15 14 15 15 17 18 18 18 18 19 19 19 20 21 21 21 22 22 23 23 23 23 23 24 24 24 24 24 24 25 25 24 24 23 22 21 20 20 19 19 19 19 20 20 20
4 3 3 2 1 1 1 2 2 1 3 4 4 4 3 3 4 4 5 5 4 4 4 5 4 5 6 6 5 5 4 3 3 3 4 6 9 10 11 11 11 10 9 10 10 11 12 12 12 11 11 11 10 9 11 12 13 14 14 15 15 16 17 18 18 19 20 22 23 24 24 25 25 25 25 26 26 26 26 25 25 25 24 24 25 25 24 24 23 22 22 21 20 19 20 21 21
3 1 1 1 2 3 2 2 3 2 3 4 5 5 3 4 5 6 8 8 8 7 6 5 7 8 7 6 6 6 5 4 4 4 4 6 8 8 9 9 8 8 7 8 8 9 9 9 8 8 7 6 6 6 7 8 9 9 10 11 12 13 14 15 16 16 18 19 20 21 22 23 24 25 25 26 27 27 28 28 27 27 26 25 25 25 26 26 26 26 25 25 23 22 21 21 22
2 1 0 1 1 1 1 1 2 3 3 3 4 6 5 4 3 6 9 8 9 9 7 7 8 8 7 7 6 6 5 5 4 4 5 7 8 7 6 6 5 6 5 5 5 5 5 5 5 5 5 5 5 5 5 6 6 6 7 8 8 10 11 12 13 13 14 15 16 18 19 19 20 22 23 24 25 26 27 28 29 29 29 29 28 27 27 27 27 27 27 27 27 27 26 24 23
5 4 3 4 3 1 2 4 1 2 3 3 4 6 5 3 2 5 8 9 8 8 8 8 8 8 7 7 6 5 5 5 5 5 5 8 8 6 5 4 3 3 2 2 2 2 2 2 2 3 3 4 4 4 4 4 4 4 5 5 5 7 8 10 10 11 11 13 14 17 19 20 21 22 23 23 24 26 26 27 28 29 30 30 31 31 31 30 29 28 28 28 28 28 29 29 27
Wind_Direction
325 326 326 325 325 335 0 60 55 338 73 62 331 64 237 241 216 131 274 290 352 258 226 209 145 130 115 172 202 203 182 178 172 123 205 246 204 178 183 192 195 173 182 186 189 192 189 187 186 183 184 184 184 183 182 182 181 180 181 182 178 179 180 176 171 165 160 156 154 153 155 157 156 154 154 154 151 157 154 154 154 145 149 143 141 148 148 143 137 139 136 132 120 110 114 112 107
342 339 343 330 332 2 305 68 84 340 49 60 329 145 239 328 24 172 211 215 208 238 217 210 242 114 82 117 175 140 244 224 182 170 238 237 162 179 183 195 207 190 181 184 187 191 191 189 189 187 186 186 185 185 184 184 184 184 184 185 183 183 183 178 172 168 164 164 163 161 164 163 161 158 158 162 161 162 158 163 165 151 150 148 151 154 148 147 141 143 147 142 139 133 133 130 123
353 346 354 348 353 41 47 41 86 52 69 86 301 252 289 13 229 220 218 217 226 228 106 44 327 162 71 34 101 128 275 261 187 203 280 183 174 183 186 196 207 199 185 183 187 192 193 191 191 191 188 189 187 186 186 185 186 187 187 188 186 186 186 181 176 172 169 170 170 170 171 169 167 164 165 167 164 162 165 172 175 161 154 159 159 156 151 148 140 144 158 151 164 174 165 157 155
355 350 354 13 34 30 54 47 112 109 109 151 276 271 278 193 217 239 239 247 255 250 78 70 358 213 110 2 252 170 267 282 210 186 183 189 179 179 187 198 201 194 190 188 190 193 196 193 193 193 191 192 190 189 189 187 188 189 190 191 190 188 187 185 179 176 175 175 174 176 176 173 170 168 172 169 163 160 167 177 179 169 160 167 161 155 150 143 134 134 169 171 211 220 202 189 191
352 356 357 30 74 36 79 74 91 96 160 183 148 271 254 211 215 237 265 286 267 188 136 117 340 283 132 217 186 165 247 284 247 206 194 185 170 174 188 200 196 190 192 193 194 196 198 196 194 195 193 193 192 193 193 191 191 192 192 193 192 190 189 186 181 179 179 180 179 180 180 177 174 173 175 172 169 162 167 178 181 174 169 169 158 153 145 137 132 126 192 288 279 241 222 209 205
356 16 22 44 91 112 84 66 34 305 223 172 156 252 240 223 213 209 303 324 276 211 166 122 274 316 340 250 187 189 223 69 231 211 191 174 164 172 189 199 194 193 193 194 197 199 200 198 196 196 196 195 194 196 196 195 196 197 197 196 194 192 189 184 181 182 183 184 183 181 182 182 179 178 179 177 174 167 168 179 183 177 176 167 148 146 141 138 134 130 229 301 278 255 235 221 215
356 4 22 51 45 50 84 113 197 260 241 174 177 224 223 229 214 144 358 344 352 327 133 220 183 84 295 290 289 237 212 197 201 191 175 167 164 169 187 196 193 196 195 195 198 200 202 200 198 197 198 197 196 198 198 197 198 201 201 199 198 195 188 183 181 184 186 188 186 182 183 189 188 183 181 182 177 168 171 180 181 172 169 161 147 154 154 155 148 151 240 265 262 265 242 225 229
357 5 30 78 32 27 85 119 223 220 248 222 208 212 216 218 194 107 8 238 313 302 12 276 140 79 293 358 285 257 210 207 192 166 166 166 167 170 185 193 195 198 198 198 196 199 202 202 200 199 200 199 198 199 200 199 199 203 202 200 200 194 187 186 186 187 189 189 188 185 188 196 196 187 181 185 182 170 173 183 182 174 169 163 161 169 171 173 171 217 251 223 257 272 234 222 239
15 38 55 78 64 27 50 344 298 233 261 287 270 250 247 218 156 100 157 304 322 250 291 249 170 40 296 354 276 274 359 185 159 153 162 167 172 172 184 193 199 199 199 201 199 198 199 203 203 202 201 201 201 200 201 201 201 203 202 201 200 194 189 192 192 192 193 192 192 189 193 203 202 190 185 189 187 177 175 183 192 191 186 185 185 184 185 186 201 251 251 249 264 275 246 228 240
31 36 81 74 77 37 4 301 312 281 269 280 272 266 270 245 102 78 123 300 331 65 294 230 130 312 295 320 274 301 342 186 158 161 166 169 172 176 187 194 202 203 202 203 203 200 198 203 204 205 204 203 203 202 203 202 202 203 203 201 200 197 193 195 197 197 198 196 197 195 198 207 207 193 189 194 190 188 184 185 199 205 206 210 206 205 209 205 210 245 256 257 261 265 259 246 227
35 355 84 77 61 55 339 265 285 282 284 301 291 266 256 215 95 61 47 320 345 61 311 127 74 269 330 299 263 303 259 204 187 179 175 175 176 182 190 193 200 208 209 207 206 204 200 202 206 208 207 206 206 205 206 204 203 204 204 202 200 200 197 198 198 200 201 200 199 200 205 210 211 199 193 197 193 195 197 193 197 203 217 225 221 221 229 228 217 227 244 250 255 260 262 244 178
66 339 61 85 98 173 209 248 279 281 299 316 287 277 264 99 77 357 311 311 354 16 282 195 167 175 45 299 265 307 257 207 201 196 192 185 182 185 190 193 199 208 214 214 211 210 205 202 206 210 211 210 208 209 209 206 206 207 206 204 202 202 201 201 200 201 204 203 201 202 209 213 214 205 195 197 195 199 207 201 198 207 222 228 226 227 235 230 213 217 233 242 253 261 248 195 165
93 105 77 82 168 175 202 232 277 308 327 292 225 284 6 51 319 229 203 255 327 2 279 212 155 104 218 271 284 319 271 218 209 209 207 190 185 185 189 195 199 204 211 217 217 216 210 206 206 209 213 213 211 211 212 210 208 209 210 207 205 205 204 204 203 204 207 206 204 205 211 215 215 208 198 198 199 203 211 207 207 215 222 223 216 211 218 211 201 219 233 239 247 246 214 180 167
107 140 100 78 275 137 203 253 306 16 326 276 254 305 1 343 253 201 160 316 286 248 246 206 145 102 256 293 319 308 263 226 213 210 205 189 188 186 189 197 202 203 209 216 221 222 216 211 208 209 211 213 214 213 214 214 212 212 212 210 208 208 207 208 207 208 211 210 207 208 212 215 215 210 203 202 202 206 211 210 217 217 212 222 220 208 208 201 205 223 233 238 239 230 201 180 170
114 115 91 97 5 351 233 252 335 102 260 267 277 327 351 290 224 219 206 261 273 230 233 240 136 167 234 246 271 268 289 235 210 206 200 193 193 191 194 198 204 206 211 215 220 225 222 217 213 211 211 212 214 214 216 216 215 215 214 213 212 212 211 211 211 211 214 213 210 210 213 215 214 212 209 207 207 210 213 216 225 222 217 228 232 223 209 197 212 223 231 235 232 223 196 179 174
108 104 69 62 348 338 254 232 102 87 275 255 285 356 355 302 274 298 247 163 285 289 10 234 189 219 198 199 249 282 323 255 209 206 199 196 195 198 202 202 206 209 211 214 219 225 224 221 217 215 214 212 214 215 217 217 217 216 216 216 215 215 215 215 214 215 217 217 214 213 215 216 214 212 211 210 212 214 217 224 230 225 226 233 234 230 214 206 219 225 231 233 226 217 194 183 181
63 75 69 29 255 243 226 214 121 51 282 276 312 2 29 299 310 289 271 107 300 300 304 246 233 224 198 216 265 311 319 242 208 205 195 195 198 204 210 208 209 210 212 215 218 222 223 223 221 219 218 216 215 216 218 219 218 216 216 218 217 217 218 219 218 216 218 219 218 216 217 217 213 212 213 214 215 216 221 230 233 229 231 237 237 232 221 218 226 230 233 232 222 210 192 186 187
51 77 98 277 200 210 194 189 186 161 277 282 310 330 173 286 308 318 324 352 323 308 295 272 279 266 241 252 277 302 292 227 206 201 195 197 201 207 215 216 216 216 215 216 219 220 222 223 224 223 221 220 218 217 218 220 220 218 216 217 218 219 218 220 221 218 218 219 219 219 219 219 215 213 215 216 216 220 227 232 231 231 236 241 241 236 230 222 229 237 234 228 217 200 190 188 191
88 116 123 225 204 216 199 196 208 184 252 272 290 275 215 266 287 344 315 298 321 317 293 293 297 279 264 264 273 284 247 212 208 201 202 205 210 217 221 222 222 225 222 220 223 223 223 224 225 225 224 222 220 219 220 221 221 220 218 217 218 219 219 219 221 220 220 220 220 220 221 220 217 215 216 217 218 221 227 230 230 234 239 244 242 239 235 224 227 233 224 219 208 188 187 190 192
153 123 142 239 220 235 246 234 232 218 230 275 290 287 293 273 243 326 320 300 303 289 279 290 295 289 287 262 247 254 216 206 210 206 212 217 222 227 229 230 230 235 234 230 230 229 228 227 227 228 228 225 222 222 221 221 222 222 220 218 218 219 220 220 221 221 221 221 219 220 221 221 220 218 218 218 220 223 226 228 230 236 239 242 241 239 237 228 224 223 216 212 199 185 190 193 195
174 136 182 232 205 232 265 257 251 243 225 288 295 317 308 279 197 254 351 320 299 277 256 245 265 283 293 286 240 225 210 209 214 215 223 229 235 237 240 243 245 249 247 241 237 235 234 232 231 231 230 228 226 224 223 224 222 221 221 221 220 220 220 220 221 222 222 222 220 219 221 221 221 220 219 219 220 223 226 228 229 233 236 238 239 239 236 229 222 221 223 211 193 189 193 196 200
169 212 209 223 172 211 266 263 275 306 341 323 308 303 292 292 9 193 182 274 275 274 257 240 249 265 280 292 290 242 220 224 222 223 229 235 241 244 248 251 253 254 249 244 242 241 240 238 237 234 232 230 230 229 227 227 225 222 221 221 221 221 221 221 221 222 223 223 221 220 221 221 221 222 221 219 220 222 224 226 228 231 235 237 238 238 235 229 224 223 228 215 194 193 195 198 205
213 274 246 240 213 223 270 284 304 331 331 300 287 285 302 332 310 235 207 239 253 266 264 256 265 269 277 291 295 279 258 245 233 237 241 245 251 255 259 260 259 255 249 249 250 247 243 241 240 236 234 233 233 233 231 230 228 226 224 222 221 221 222 221 221 222 223 224 223 222 221 220 220 221 222 221 221 223 226 228 230 233 235 238 238 239 235 229 226 226 230 221 200 197 198 201 206
203 261 278 263 232 229 258 282 293 289 257 258 272 329 314 294 296 289 256 259 262 269 270 265 270 281 292 294 285 286 288 284 275 274 277 278 278 277 280 281 277 270 259 256 257 252 249 246 241 237 236 236 235 234 232 232 232 231 228 225 223 222 222 222 222 223 223 224 224 224 224 222 221 222 223 223 224 226 230 232 233 234 236 239 239 238 235 230 227 227 231 225 208 201 201 203 208
195 226 269 280 258 248 264 273 272 269 261 263 305 305 276 264 284 308 273 272 272 277 289 281 279 295 299 300 317 331 324 320 325 341 8 10 352 334 334 328 305 291 274 269 270 263 257 252 244 240 239 238 237 234 233 234 234 234 231 228 225 224 224 223 224 223 224 224 224 225 225 225 224 224 225 225 226 229 232 234 234 235 236 238 238 237 235 231 227 227 230 228 215 206 205 206 209
210 202 243 276 283 281 285 278 269 274 267 227 300 287 277 276 289 275 264 261 270 299 312 293 299 303 298 322 4 22 19 8 4 14 27 30 32 29 24 22 16 3 322 294 285 273 265 258 249 245 243 242 239 235 234 235 234 234 233 232 229 227 227 227 226 225 226 225 225 224 225 226 226 227 227 227 228 230 232 234 234 235 236 236 238 238 236 233 230 228 229 229 221 212 210 210 212
217 222 280 278 287 291 274 269 277 293 278 207 224 270 281 305 303 274 266 255 280 339 308 294 314 306 321 14 38 41 40 29 19 26 28 24 25 21 19 22 24 26 18 356 321 287 270 266 259 251 247 244 240 238 237 236 235 235 235 234 233 232 231 230 229 229 229 229 229 227 226 227 228 229 229 230 231 233 234 235 236 235 235 235 236 238 238 235 233 230 230 231 225 217 215 216 218
188 336 319 303 318 308 274 267 276 295 287 202 174 255 295 351 188 241 257 265 326 341 299 304 340 346 21 59 62 49 44 34 30 36 30 19 17 15 17 17 15 19 22 17 8 336 281 270 269 259 250 244 241 241 241 239 238 237 236 235 235 235 235 233 232 232 232 233 234 232 230 229 230 231 231 232 234 236 237 238 238 237 237 236 236 238 239 237 234 232 232 233 230 226 223 221 222
27 50 332 302 345 322 281 275 264 182 260 177 141 310 316 274 221 242 256 280 339 328 296 312 2 24 59 78 67 52 42 36 35 36 28 20 19 17 20 19 17 18 19 18 13 5 331 280 269 264 254 246 242 243 244 242 242 240 238 237 237 236 235 235 235 236 236 237 237 235 234 233 233 234 234 234 236 238 239 239 240 240 239 238 237 239 239 238 235 231 229 231 232 231 229 224 222
314 23 325 299 353 318 281 283 43 341 235 165 137 296 288 259 249 258 270 299 334 313 295 334 25 35 68 76 65 56 42 36 35 31 24 23 21 21 23 24 27 24 22 22 18 16 3 323 276 265 255 250 247 246 245 245 244 242 240 239 238 237 235 237 238 239 240 240 239 238 238 237 237 238 237 237 237 238 240 240 241 242 241 239 238 240 240 238 235 231 228 229 231 233 232 226 222
319 322 333 327 331 280 290 293 22 329 275 152 144 208 256 269 277 278 282 298 336 296 298 12 38 44 71 72 65 60 46 41 35 29 25 24 22 23 25 27 32 32 32 35 36 38 33 27 9 282 260 253 248 246 246 246 246 244 242 241 239 239 238 238 239 239 240 240 241 242 243 242 241 240 240 240 238 239 239 239 240 241 241 239 238 240 241 238 235 233 231 229 232 234 233 228 225
13 300 306 327 204 263 305 296 197 236 289 117 131 211 261 271 276 280 289 312 303 284 304 27 52 62 73 67 63 63 48 42 36 29 24 24 24 25 27 30 35 37 39 44 49 53 53 52 53 46 355 262 250 249 248 247 247 246 245 245 243 243 242 242 241 240 240 239 240 242 245 246 245 244 242 241 240 239 240 240 241 241 241 240 240 240 240 238 235 234 233 233 234 234 232 229 227
345 190 250 266 212 254 313 304 219 169 298 72 151 219 273 277 273 282 295 303 303 301 320 20 67 73 71 66 59 57 44 38 31 25 22 24 27 28 31 34 38 42 44 48 52 55 55 55 58 60 59 50 11 274 257 252 252 251 250 249 249 249 248 248 247 245 243 241 241 242 244 244 245 244 243 242 242 241 241 242 242 240 240 240 241 240 239 239 237 233 233 234 236 235 232 230 229
311 272 229 244 223 220 285 297 315 36 64 341 257 223 252 268 277 290 292 298 320 323 324 9 78 83 73 71 61 55 46 41 29 20 20 24 29 33 37 39 42 46 48 50 53 55 55 53 55 58 59 57 54 47 13 285 261 254 250 248 248 249 249 249 248 247 246 245 246 246 246 244 243 242 242 243 244 243 242 242 242 241 239 239 240 241 241 240 237 235 234 234 234 234 234 234 234
247 249 234 264 256 238 258 271 296 351 14 327 298 278 270 276 281 284 284 306 338 305 308 34 90 88 76 71 64 58 52 49 33 22 24 28 31 35 39 43 45 47 48 50 52 55 56 55 54 55 55 56 59 63 64 64 75 110 198 215 228 234 240 244 244 245 247 248 247 248 247 245 243 241 241 242 242 243 241 240 241 241 240 239 238 240 239 236 235 234 234 233 231 231 234 237 239
224 237 213 237 259 261 263 262 270 334 353 298 281 275 274 285 291 285 289 322 316 273 313 68 94 85 75 69 63 58 55 51 35 30 32 34 35 38 41 45 47 49 49 49 50 51 51 52 53 53 51 52 57 59 58 59 66 72 76 85 92 91 105 209 231 240 246 248 248 248 247 246 244 243 242 241 241 241 240 239 239 239 240 239 238 238 237 237 237 237 235 233 229 228 230 234 237
227 256 244 243 253 270 268 265 277 334 343 272 271 285 278 279 284 285 300 338 338 312 40 92 92 81 75 70 64 57 56 49 39 38 38 37 39 41 42 45 49 50 48 48 49 48 48 50 51 50 48 50 53 51 50 49 49 49 48 51 52 54 59 60 58 36 275 257 254 254 255 253 249 245 242 242 242 242 242 241 240 239 239 240 241 242 242 242 241 239 237 232 228 226 226 229 231
246 248 265 274 257 259 258 253 283 339 158 267 329 344 295 283 284 297 331 5 356 350 83 106 93 86 75 68 65 59 58 44 39 39 36 38 40 43 44 44 46 46 44 46 47 47 49 51 50 48 48 50 51 50 50 49 47 47 47 47 45 44 46 40 34 29 18 1 342 319 299 284 270 259 250 246 245 246 245 244 243 242 242 243 244 244 242 240 237 235 232 229 227 227 229 230 227
212 219 230 266 254 270 280 274 304 353 197 278 332 341 294 284 292 348 17 41 29 20 71 86 86 89 71 64 62 56 57 41 38 35 32 36 39 43 45 44 45 45 43 44 46 48 50 50 50 50 49 50 49 49 50 49 48 48 51 55 55 57 55 48 44 40 29 19 15 10 3 352 329 300 280 268 261 257 255 252 250 247 245 244 243 242 239 237 235 233 231 229 228 226 229 230 227
217 210 202 249 242 216 276 287 312 328 318 289 313 319 291 283 307 43 37 62 66 49 67 66 66 80 73 68 60 50 55 42 39 35 28 34 39 41 43 44 46 47 46 44 44 46 48 49 51 51 51 50 49 49 50 52 53 51 52 56 58 60 56 50 49 42 35 30 25 20 15 11 3 348 325 308 297 290 285 278 271 262 256 251 247 245 243 242 240 237 235 233 230 224 225 228 228
248 218 211 237 243 216 225 287 323 335 352 8 358 332 303 288 310 69 61 71 69 55 69 67 56 69 72 68 59 47 50 44 41 38 28 33 38 40 43 45 48 49 48 46 46 47 49 51 53 53 53 52 51 50 49 52 55 53 53 52 50 50 45 41 37 33 33 32 26 21 18 13 7 360 348 334 321 313 309 304 299 290 280 270 261 256 252 250 247 243 240 237 233 229 228 229 229
289 237 215 225 240 240 233 336 4 15 336 335 34 359 295 311 324 180 174 76 61 44 59 65 52 52 57 57 51 41 43 44 42 42 36 37 40 43 44 45 47 48 49 50 51 52 53 55 55 55 55 53 51 51 51 55 57 55 53 49 45 43 41 39 35 30 30 29 25 21 18 13 8 3 357 348 335 325 317 313 311 307 302 293 282 271 261 256 252 248 245 242 239 237 235 232 230
286 248 208 206 203 196 175 96 62 130 250 285 55 109 260 313 318 219 174 109 83 67 55 61 53 46 52 53 48 43 40 39 41 41 39 40 41 43 43 44 47 48 50 53 55 55 56 56 56 56 55 54 53 52 53 57 60 60 58 54 50 46 43 41 40 39 36 31 27 23 18 14 12 9 5 0 353 342 331 322 317 312 310 308 302 291 278 268 262 258 254 250 248 245 240 235 236
239 237 140 131 131 146 152 119 149 219 247 311 354 157 243 291 278 228 156 130 101 82 67 61 59 53 55 54 50 48 40 37 41 43 39 41 43 46 46 47 49 52 54 57 57 56 57 57 58 58 56 55 54 54 55 56 59 61 62 60 54 48 44 41 42 43 42 38 33 27 18 11 6 4 2 1 358 352 346 336 327 320 315 313 312 307 299 289 277 269 264 260 256 251 245 241 241
238 210 132 120 130 149 146 122 180 256 6 307 290 163 237 261 268 293 150 169 172 132 124 100 84 78 73 67 53 43 38 36 39 46 46 43 46 50 53 53 55 58 59 60 60 60 61 60 60 60 57 55 54 53 55 55 56 58 59 59 54 47 42 40 39 39 40 37 35 32 24 17 10 1 355 350 345 342 343 342 338 332 325 319 316 313 309 304 294 282 273 268 264 259 254 249 246
218 159 108 59 68 90 93 115 132 32 348 254 238 187 202 266 281 305 122 207 209 165 143 135 125 115 95 74 56 42 36 34 36 46 51 51 53 55 59 61 59 60 61 63 63 63 63 63 63 62 58 56 55 54 54 53 53 53 52 51 48 43 37 35 35 34 32 29 29 26 22 20 16 11 6 359 350 342 336 332 332 332 333 330 324 321 317 310 305 297 286 278 273 268 262 256 251
123 97 57 23 21 37 41 69 89 59 275 252 224 195 175 273 282 234 175 257 187 152 145 161 152 129 104 76 57 49 39 34 35 42 49 55 60 60 61 61 58 59 61 62 63 62 63 63 64 63 60 57 56 55 55 54 52 51 50 48 46 42 37 34 34 32 29 27 26 23 18 15 12 9 5 1 358 353 345 337 329 323 323 328 329 328 325 320 315 308 301 291 283 277 271 265 258
91 83 64 33 340 8 20 355 41 114 253 269 232 172 150 220 267 298 319 325 332 157 167 169 158 138 117 90 73 61 44 41 42 42 47 52 54 53 54 54 53 56 58 59 59 60 61 61 63 63 59 58 58 56 56 55 54 53 51 50 48 45 42 40 39 36 33 32 30 26 23 20 15 11 5 360 357 353 349 346 339 330 322 319 320 322 322 323 321 316 311 304 296 288 282 275 268
80 96 86 71 325 347 349 302 323 218 253 274 162 121 137 233 242 5 344 337 332 300 155 151 147 138 132 123 108 79 52 49 51 49 46 47 48 47 49 51 52 54 55 57 58 59 61 60 61 61 58 56 57 57 57 57 56 56 54 54 53 50 48 46 44 42 39 38 36 32 30 27 23 20 16 11 5 358 353 348 344 341 335 326 319 316 316 318 319 318 316 312 307 302 295 288 280
137 145 127 121 149 219 265 265 275 266 272 289 162 125 278 266 318 5 348 337 333 15 93 116 125 128 136 142 132 93 66 54 50 52 50 51 54 54 55 55 55 56 56 57 59 59 61 61 61 62 59 57 57 58 58 59 59 59 58 58 57 54 52 50 48 45 42 42 41 39 35 32 29 25 22 19 14 9 5 358 351 343 336 331 324 319 316 315 315 315 314 313 312 308 305 301 293
175 159 137 147 161 172 221 229 222 261 284 301 292 214 211 231 307 339 346 353 8 49 75 87 94 109 127 125 120 112 85 57 52 61 61 63 65 63 62 59 58 58 58 58 58 59 61 61 61 62 61 59 60 60 60 60 61 60 61 61 60 59 57 55 52 48 44 42 40 40 37 33 30 26 23 20 17 14 12 9 4 356 347 339 332 325 320 316 314 311 310 310 310 310 309 306 303
211 132 114 167 186 164 196 214 183 193 302 299 252 225 208 178 272 324 359 29 39 48 62 83 95 105 114 125 155 173 147 78 75 82 76 73 71 66 63 60 59 58 57 55 54 54 58 60 62 63 63 63 63 63 63 63 62 61 60 60 59 59 58 57 55 51 47 44 40 38 36 32 29 25 21 18 15 14 12 10 9 6 1 353 347 342 334 328 323 317 314 311 308 308 309 309 307
164 124 173 215 181 133 125 268 203 96 274 273 212 219 292 346 272 311 22 38 43 43 63 102 124 122 129 173 203 204 190 132 99 102 98 85 75 68 64 61 59 56 54 53 51 51 55 56 58 60 60 61 60 61 62 62 62 60 58 56 54 54 53 52 51 49 46 44 41 38 34 31 28 24 20 16 13 12 10 8 6 4 2 359 356 353 347 342 335 328 323 320 316 313 310 308 307
129 163 213 207 122 87 96 229 331 29 247 273 271 211 239 241 239 271 63 71 69 85 139 151 161 166 185 207 219 220 204 152 114 116 110 96 84 76 72 66 62 59 56 57 58 55 54 52 50 50 49 50 50 52 55 55 55 54 52 50 47 45 44 42 40 39 36 33 31 29 25 23 21 18 16 13 10 9 8 6 3 1 359 357 356 354 352 348 343 339 334 328 324 321 316 309 306
123 189 202 115 136 267 64 161 225 242 241 277 292 263 238 207 203 195 192 186 164 176 196 191 191 202 210 216 224 226 209 174 154 145 131 113 100 88 84 80 75 73 69 69 68 62 60 56 51 50 48 46 45 45 48 47 48 48 45 44 41 37 34 30 28 26 24 22 20 17 15 13 12 9 8 7 5 4 3 2 0 358 356 354 352 352 350 349 347 344 341 337 333 329 324 317 313
57 47 8 53 164 180 175 176 174 184 226 266 286 289 270 232 202 182 187 183 171 182 198 200 203 208 209 206 212 215 201 191 181 168 167 140 119 105 97 93 86 82 77 75 74 69 67 64 60 62 58 55 53 45 42 42 42 41 39 38 37 33 29 25 22 19 17 16 14 11 8 6 5 2 1 0 359 358 357 355 355 353 351 350 349 348 347 346 344 343 341 340 338 336 332 326 321
106 94 214 255 210 167 255 232 139 149 194 235 269 274 265 252 210 170 174 177 179 182 181 196 211 210 208 212 212 205 188 188 186 177 175 154 136 123 112 107 96 88 78 71 72 74 78 79 78 78 73 69 65 56 51 45 41 36 32 31 29 26 23 21 20 16 13 11 8 5 3 360 358 356 355 353 351 351 349 348 346 345 344 344 343 343 342 341 340 338 337 337 336 336 334 332 328
149 168 190 189 172 140 265 262 205 150 188 196 229 261 267 260 222 163 163 174 186 185 177 191 210 208 213 225 216 195 183 184 182 174 165 154 147 142 138 136 128 113 98 77 74 89 109 110 100 91 85 78 71 66 63 52 44 36 24 18 12 9 12 12 11 8 4 1 358 356 356 353 350 349 347 346 344 342 341 339 338 337 336 336 336 336 336 335 334 332 331 331 331 331 330 329 329